www.pogodaiklimat.ru

ПОГОДА в Маршалле, MI

  • Прогноз погоды в Маршалле
  • Монитор погоды в Маршалле
  • Климат в Маршалле

АРХИВ ПОГОДЫ в Маршалле

Время (UTC), дата Ветер
(напр.,м/с)
 
Видим.   Явления Облачность Т
(С)
Тd
(С)
f
(%)
Тe
(С)
Тes
(С)
Комфортность

P
(гПа)

Po
(гПа)
Тmin
(С)
Tmax
(С)
R
(мм)
SD
(см)
14:15 21.03 С  8 км  дымка  10/10 180 м  +3.7  +3.7  100  +1  +1      979.4         
14:35 21.03 С  16 км    10/10 270 м  +3.5  +3.5  100  -0  -0      979.4         
14:36 21.03 С  16 км    10/10 270 м  +3.5  +3.5  100  -0  -0      979.4         
14:55 21.03 СЗ  16 км    10/10 270 м  +3.5  +3.5  100  -0  -0      979.4         
14:56 21.03 СЗ  16 км    10/10 270 м  +3.5  +3.5  100  -0  -0      979.4         
15:15 21.03 СЗ  16 км    10/10 270 м  +3.4  +3.4  100  -0  -0      979.4         
15:16 21.03 С  16 км    10/10 270 м  +3.4  +3.4  100  -0  -0      979.4         
15:35 21.03 С  16 км    10/10 270 м  +3.4  +3.4  100  -1  -1      979.4         
15:55 21.03 СЗ  16 км    10/10 270 м  +3.4  +3.4  100  -0  -0      979.4         
15:56 21.03 СЗ  16 км    10/10 270 м  +3.4  +3.4  100  -0  -0      979.4         
16:15 21.03 С  16 км    10/10 270 м  +3.1  +3.1  100  0  0      979.4         
16:16 21.03 СЗ  16 км    10/10 270 м  +3.1  +3.1  100  0  0      979.4         
16:35 21.03 СЗ  16 км    10/10 270 м  +3.2  +3.2  100  -1  -1      979.4         
16:36 21.03 СЗ  16 км    10/10 270 м  +3.2  +3.2  100  -1  -1      979.4         
16:55 21.03 СЗ  16 км    10/10 270 м  +3.3  +3.3  100  -2  -2      979.4  +2.5  +3.8     
16:56 21.03 СЗ  16 км    10/10 330 м  +3.3  +3.3  100  -1  -1      979.4  +2.5  +3.8     
17:15 21.03 З  16 км    10/10 330 м  +3.3  +3.3  100  -1  -1      979.4         
17:35 21.03 СЗ  16 км    10/10 330 м  +3.3  +3.3  100  -1  -1      979.4         
17:55 21.03 СЗ  16 км    10/10 330 м  +3.3  +3.3  100  -1  -1      979.1         
17:56 21.03 СЗ  16 км    10/10 330 м  +3.4  +3.3  99  -1  -1      979.1         
18:15 21.03 СЗ  16 км    10/10 390 м  +3.7  +3.1  96  0  0      978.7         
18:35 21.03 СЗ  16 км    10/10 390 м  +4.0  +3.2  95  0  0      978.7         
18:55 21.03 СЗ  16 км    10/10 450 м  +4.2  +2.4  88  0  0      978.7         
18:56 21.03 СЗ  16 км    10/10 450 м  +4.3  +2.3  87  +1  +1      978.7         
19:15 21.03 СЗ  16 км    10/10 510 м  +4.3  +2.1  86  0  0      978.7         
19:16 21.03 СЗ  16 км    10/10 510 м  +4.3  +2.1  86  -0  -0      978.7         
19:35 21.03 З  16 км    10/10 510 м  +4.5  +2.3  86  0  0      978.7         
19:55 21.03 СЗ  16 км    10/10 570 м  +4.6  +2.4  86  +1  +1      978.7         
19:56 21.03 З  16 км    10/10 570 м  +4.6  +2.3  85  +1  +1      978.7         
20:15 21.03 З  16 км    10/10 600 м  +4.6  +2.6  87  +1  +1      978.4         
20:16 21.03 З  16 км    10/10 600 м  +4.6  +2.6  87  +1  +1      978.4         
20:35 21.03 З  16 км    10/10 600 м  +4.5  +2.3  86  0  0      978.4         
20:36 21.03 З  16 км    10/10 600 м  +4.5  +2.2  85  0  0      978.4         
20:55 21.03 З  16 км    10/10 600 м  +4.5  +1.8  83  +1  +1      978.4         
21:15 21.03 З  16 км    10/10 600 м  +4.5  +2.0  84  +1  +1      978.4         
21:16 21.03 З  16 км    10/10 600 м  +4.5  +2.0  84  +1  +1      978.4         
21:35 21.03 З  16 км    10/10 600 м  +4.6  +2.4  86  0  0      978.1         
21:55 21.03 З  16 км    10/10 540 м  +4.3  +2.9  91  -1  -1      978.4         
22:15 21.03 З  16 км    10/10 600 м  +4.0  +2.2  88  -1  -1      978.4         
22:16 21.03 З  16 км    10/10 540 м  +4.0  +2.1  87  -1  -1      978.4         
22:35 21.03 З  7
{9} 
16 км    10/10 570 м  +3.8  +1.8  87  -2  -2      978.7         
22:55 21.03 З  16 км    10/10 510 м  +3.2  +1.6  89  -3  -3      978.7  +3.2  +4.7     
23:15 21.03 З  4
{8} 
16 км    10/10 510 м  +2.8  +1.6  92  -3  -3      978.7         
23:35 21.03 З  16 км    10/10 510 м  +2.5  +1.0  90  -3  -3      978.7         
23:36 21.03 З  16 км    10/10 510 м  +2.5  +1.0  90  -3  -3      978.7         
23:55 21.03 З  16 км    10/10 570 м  +2.5  +0.1  84  -3  -3      979.1         
23:56 21.03 З  16 км    10/10 570 м  +2.5  +0.1  84  -3  -3      979.1         
00:15 22.03 З  16 км    10/10 570 м  +2.5  +0.4  86  -2  -2      979.1         

 

Местоположение метеостанции Brooks Field Airport: широта 42.2511 долгота -84.9556 высота над уровнем моря 287 м.

В архиве по умолчанию представлена погода в Маршалле за последние 1-2 суток. Обновление информации о фактической погоде в базе происходит ежечасно! Архивные данные за месяц целиком и за предыдущие месяцы Вы можете получить, выбрав интересующий диапазон дат из раскрывающегося списка и нажав кнопку "Ввод!".

Внимание! Архив погоды МЕТАР в базе сайта хранится не более 60 дней. Нет смысла пытаться выбрать более раннюю дату.

Внимание! Время в таблицах - всемирное. Для получения местного времени необходимо прибавить поправку, которая в Маршалле равна -5 ч.

Ветер - указаны скорость ветра в м/с и направление, откуда дует ветер: С - северный, СВ - северо-восточный, В - восточный, ЮВ - юго-восточный, Ю - южный, ЮЗ - юго-западный, З - западный, СЗ - северо-западный.
Видимость - горизонтальная дальность видимости в метрах или километрах. При видимости от 1 до 10 км при отсутствии осадков обычно наблюдается дымка, при ухудшении видимости до 1 км и менее - туман. В сухую погоду видимость может ухудшаться дымом, пылью или мглою.
Атмосферные явления - указаны явления, наблюдавшиеся в указанный момент времени.
Облачность - указаны через наклонную черту верхняя и нижняя облачность в баллах и высота нижней границы облаков в метрах. Внимание: облачность, как и прочие метеорологические величины в США измеряются автоматическими метеостанциями. Указанные значения в баллах носят условный характер и показывают процент времени, в течение которого, в среднем, лазерный луч высотомера отражался от облаков обратно.
T - Температура воздуха - температура, измеренная на высоте 2 м над землей.
Td - Температура точки росы - температура, при понижении до которой содержащийся в воздухе водяной пар достигнет насыщения.
f - Относительная влажность воздуха - влажноcть воздуха, измеренная на высоте 2 м над землей.
Te - Эффективная температура - температура, которую ощущает одетый по сезону человек в тени. Характеристика душности погоды. При расчете учитывается влияние влажности воздуха и скорости ветра на теплоощущения человека.
Tes - Эффективная температура на солнце - температура, которую ощущает человек, с поправкой на солнечный нагрев. Характеристика знойности погоды. Зависит от высоты солнца над горизонтом, облачности и скорости ветра. Ночью, в пасмурную погоду, а также при ветре 12 м/с и более поправка равна нулю.
P - Атмосферное давление - приведенное к уровню моря атмосферное давление.
Po - Атмосферное давление - измеренное на уровне метеостанции атмосферное давление.
Tmin - Минимальная температура - минимум температуры воздуха на высоте 2 м над землей.
Tmax - Максимальная температура - максимум температуры воздуха на высоте 2 м над землей.
R - Количество осадков - Количество выпавших осадков за 3 или 6 часов, мм.
SD - Снежный покров - Высота снежного покрова, см.